Location: ?????oe
(44.4874°N, 135.7046°E)
Time: 01:02:18
(UTC+00:00)

IRIDIUM 106 - Pass Details

Date: 13 December 2025
Orbit: 776 x 779 km, 86.4° (Epoch: 17 January)

Event Time Altitude Azimuth Distance (km) Brightness Sun altitude
Rises 20:43:06 0° 185° (S) 3,248 7.7 -17.5°
Reaches altitude 10° 20:45:26 10° 186° (S) 2,325 6.9 -17.1°
Maximum altitude 20:50:39 79° 273° (W) 798 4.2 -16.2°
Drops below altitude 10° 20:55:54 10° 1° (N) 2,341 6.6 -15.3°
Sets 20:58:16 0° 3° (N) 3,273 7.4 -14.9°
